Lid_Strength_Index
-1 0 1 3 9 9 11 10 9 8 8 7 7 8 8 8 8 10 3 1 1 1 -0 -1 -1 -1 -1 -1 -1 -1 -1 -1 -1 -1 -1 -1 -1 -1 -1 -1 -1 -1 -1 -1 -1 -1 -0 1 1
1 1 2 5 10 12 12 10 9 8 7 7 7 7 8 8 5 4 3 1 1 1 -0 -0 -0 -1 -1 -1 -1 -1 -2 -1 -1 -1 -1 -1 -2 -1 -1 -1 -1 -1 -1 -1 -1 -1 0 1 1
1 2 5 8 10 12 12 9 9 8 7 8 8 7 8 7 5 4 2 1 1 1 -0 -0 -0 -1 -1 -1 -1 -1 -1 -1 -1 -1 -1 -2 -2 -1 -1 -1 -1 -1 -1 -1 -1 -0 0 1 1
2 4 6 10 11 10 10 9 8 8 7 6 7 8 7 5 5 3 1 1 1 1 0 -0 -1 -1 -1 -1 -1 -1 -1 -1 -1 -2 -2 -2 -2 -1 -1 -1 -1 -1 -1 -1 -1 -1 -0 0 1
3 5 9 11 10 10 10 7 8 8 8 7 7 8 8 5 3 2 2 1 1 1 1 -0 -1 -1 -1 -1 -1 -1 -1 -1 -1 -2 -2 -1 -2 -1 -1 -1 -1 -1 -1 -1 -1 -1 -0 1 1
6 7 11 11 11 9 9 7 8 8 7 8 9 8 8 5 4 4 2 2 1 1 0 -0 1 0 -0 -1 -1 -1 -1 -1 -1 -2 -2 -2 -1 -1 -1 -1 -1 -1 -1 -1 -1 -0 1 1 2
7 8 10 11 10 9 8 7 9 8 8 8 6 9 7 6 4 3 3 2 2 1 1 1 -0 0 1 0 0 -0 -1 -1 -1 -2 -2 -2 -2 -1 -1 -2 -2 -2 -1 -1 -0 0 1 2 3
6 8 10 11 10 10 8 8 8 8 8 6 7 9 8 7 4 4 2 2 2 1 1 1 0 0 0 1 2 1 0 -0 -1 -1 -1 -1 -1 -1 -1 -1 -2 -1 -1 -1 -0 1 2 3 4
5 10 11 10 10 10 8 9 8 7 9 8 7 8 7 5 4 4 3 3 3 2 2 1 1 1 0 0 1 2 1 1 0 0 0 1 -0 0 1 -0 -1 -1 -1 -1 0 1 2 4 6
8 10 10 8 9 10 9 10 9 10 10 9 9 7 6 5 6 5 4 4 3 3 2 2 1 1 1 0 1 2 2 2 2 1 1 -0 -0 1 0 1 -0 -1 -0 -0 1 2 3 5 9
8 10 8 8 8 8 9 10 9 10 11 9 9 8 8 7 7 6 6 5 4 3 2 2 2 1 1 1 1 1 1 2 2 2 1 0 0 2 2 3 2 3 3 4 4 5 8 9 10
10 8 8 7 8 9 10 9 10 10 9 7 8 7 8 8 8 7 6 6 5 4 2 2 2 2 2 1 2 2 1 1 2 2 2 1 0 3 3 3 3 4 5 6 7 9 9 9 10
10 9 7 7 8 9 8 9 10 10 8 7 7 7 8 8 8 7 6 6 5 5 4 2 2 2 2 2 2 2 2 2 2 2 1 -0 1 4 3 4 3 4 5 6 8 9 10 10 10
9 9 9 8 8 8 9 10 10 9 9 8 8 8 8 8 8 8 7 7 6 5 5 3 2 2 2 2 2 2 2 2 1 2 1 1 2 4 4 4 4 4 6 7 9 9 10 10 10
9 11 10 10 9 10 9 11 11 9 9 9 9 9 8 8 8 8 8 7 6 6 5 4 3 2 2 2 2 2 2 2 2 2 2 2 3 4 4 5 5 5 6 8 9 10 10 10 10
11 12 14 11 10 11 11 14 10 9 9 9 9 9 9 8 8 8 8 8 8 8 6 5 4 3 2 2 2 2 2 2 2 2 2 2 2 3 5 6 6 6 7 9 10 11 11 11 11
13 16 14 12 9 11 12 14 10 9 10 9 9 10 9 9 9 8 8 8 8 8 7 7 6 6 4 3 3 2 2 2 2 2 2 2 2 3 5 6 6 7 9 10 10 11 11 12 12
15 15 13 13 10 11 12 13 11 9 10 10 10 10 10 10 9 8 8 8 8 8 7 8 7 6 5 5 4 4 4 3 3 4 4 4 4 4 6 7 7 8 10 11 11 12 12 12 12
13 14 14 12 10 11 12 12 12 10 9 10 10 10 10 9 9 8 8 9 9 9 9 8 8 8 7 7 7 6 6 5 5 4 4 4 5 5 7 8 9 10 11 11 11 12 12 12 12
13 14 14 12 11 12 13 13 11 10 10 10 11 11 10 10 10 10 10 10 10 10 10 9 9 8 8 8 7 6 6 6 5 5 5 5 5 6 7 8 10 11 12 12 12 12 13 13 13
14 15 14 14 12 12 14 15 13 10 10 10 10 10 11 11 11 11 11 11 11 11 10 10 10 10 9 9 8 8 8 8 8 8 7 6 6 6 7 8 9 10 11 12 12 12 13 14 14
15 12 13 14 16 18 14 19 14 12 12 12 11 12 12 12 11 11 12 12 12 11 11 11 10 10 10 10 10 11 10 10 9 9 8 7 6 6 7 8 9 10 11 12 12 12 12 14 14
14 13 14 15 16 17 16 18 15 12 14 14 13 12 12 12 12 12 12 12 12 12 12 12 12 11 11 11 11 11 11 11 10 10 10 9 9 8 8 8 9 10 11 11 12 12 12 12 13
12 14 14 15 16 20 16 16 16 15 14 13 12 12 11 11 11 11 11 12 12 12 12 12 12 13 12 11 11 12 13 12 12 11 11 11 10 10 9 9 10 10 10 12 12 12 12 12 12
14 16 19 19 20 20 14 16 14 11 11 12 12 11 11 11 11 12 12 12 13 13 12 12 12 13 13 13 12 12 12 13 13 12 12 12 12 11 10 10 10 11 10 10 12 12 12 12 12
14 14 17 23 21 18 15 18 14 11 11 11 11 11 11 12 12 13 12 12 12 12 12 12 12 12 13 13 13 13 12 13 12 12 12 11 11 11 11 11 11 11 11 10 11 12 13 13 12
13 15 12 16 20 21 17 14 12 10 11 11 12 12 13 14 13 13 13 13 13 13 13 12 12 12 12 12 12 12 12 12 12 12 12 12 11 11 11 11 12 11 11 11 11 12 13 14 13
12 12 16 15 21 24 19 18 16 12 12 12 13 13 13 13 14 14 14 13 13 13 12 12 12 12 12 12 12 11 11 12 12 12 12 12 11 11 12 12 12 12 12 12 13 12 13 14 13
12 13 12 12 14 19 20 18 11 12 12 13 12 11 12 13 13 14 13 13 13 13 13 12 12 12 12 12 12 12 12 12 12 13 12 12 12 11 11 11 12 12 12 12 13 13 13 13 13
9 11 12 16 18 16 16 16 8 10 11 11 12 11 12 12 12 13 14 13 13 14 13 13 12 12 12 12 13 13 12 12 14 14 13 12 12 11 11 11 12 12 11 11 12 12 12 13 13